Regional Weather Roundup
Issued by NWS New Orleans/Baton Rouge, LA

Home | Current Version | Previous Version | Graphics & Text | Print | Product List | Glossary On
Versions: 1 2 3 4 5 6 7 8 9 10 11 12 13 14 15 16 17 18 19 20 21 22 23 24 25 26 27 28 29 30 31 32 33 34 35 36 37 38 39 40 41 42 43 44 45 46 47 48 49 50
171
ASUS44 KLIX 282201
RWRLIX
NEW ORLEANS REGIONAL WEATHER ROUNDUP
NATIONAL WEATHER SERVICE NEW ORLEANS LA
500 PM CDT MON JUL 28 2014

NOTE: "FAIR" INDICATES FEW OR NO CLOUDS BELOW 12,000 FEET WITH NO
      SIGNIFICANT WEATHER AND/OR OBSTRUCTIONS TO VISIBILITY.
      SKY/WX - SKY CONDITION AND SIGNIFICANT WEATHER.
      TMP - AIR TEMPERATURE.     DP    - DEWPOINT TEMPERATURE.
      RH  - RELATIVE HUMIDITY.   PRES  - PRESSURE.
      HI  - HEAT INDEX.          WCI   - WIND CHILL INDEX.

*  THESE STATIONS ARE NOT NWS OR FAA STATIONS AND ARE NOT UNDER
   NWS QUALITY CONTROL.

LAZ038-040-048-061>063-065>067-069-282300-
SOUTHEAST LOUISIANA

CITY           SKY/WX    TMP DP  RH WIND       PRES   REMARKS
N.O. AUDUBON   NOT AVBL
N.O. INTL ARPT PTSUNNY   90  74  59 W15       30.00F HX  99
N.O. LAKEFRONT PTSUNNY   90  78  68 W17       30.00F HX 104
N.O. DOWNTOWN* MOCLDY    93  73  52 W9        30.01S HX 102
SLIDELL        PTSUNNY   91  77  63 W8        29.98F HX 104
BATON ROUGE    MOSUNNY   91  75  59 W9        30.00F HX 101
BOOTHVILLE     SUNNY     88  79  74 SW17G23   30.01F HX 103
BELLE CHASSE   PTSUNNY   91  73  55 VRB3      29.99F HX  99
BOGALUSA*        N/A     93  76  56 W8        30.00F HX 105
GALLIANO*      NOT AVBL
NEW ROADS*     MOCLDY    90  76  64 MISG      30.01F HX 102
GONZALES*        N/A     91  78  66 W6        30.00F HX 106
HAMMOND*       PTSUNNY   93  73  52 W10       30.01F HX 102
HOUMA*         NOT AVBL
PORT FOURCHON* CLEAR     90  77  66 W16G22    30.03F HX 102

$$

MSZ070-080>082-282300-
SOUTHERN MISSISSIPPI

CITY           SKY/WX    TMP DP  RH WIND       PRES   REMARKS
MCCOMB         MOSUNNY   90  75  61 NW10      30.01F HX 100
GULFPORT       PTSUNNY   94  74  52 W7        29.96F HX 104
BILOXI         MOSUNNY   92  77  62 VRB3      29.97S HX 105
PASCAGOULA     PTSUNNY   90  78  68 W3        29.96F HX 104
STENNIS ARPT*  MOSUNNY  N/A N/A N/A W5        29.99F

$$

COASTAL OBSERVATIONS
LAKE AND NEARSHORE STATIONS

STATION/POSITION TIME  TEMP    WIND        PRES    WAVE
                       AIR SEA DIR/SP/G            HT/PER
                 (UTC) (F)     (DEG/KT/KT) (MB)    (FT/S)
PASCAGOULA       2100   89     250/ 15/ 21 1014.5
WAVELAND YACHT   2100   88     280/  6/ 10 1014.8
GRAND ISLE       2100   89 88  270/ 14/ 17 1017.2
SOUTHWEST PASS   2100   87 85  280/ 19/ 23 1017.1
NEW CANAL        2100   91 86  270/  7/ 12 1016.6
SHELL BEACH      2100   86 84  320/ 11/ 13 1015.9

OFFSHORE STATIONS

STATION/POSITION TIME  TEMP    WIND        PRES    WAVE
                       AIR SEA DIR/SP/G            HT/PER
                 (UTC) (F)     (DEG/KT/KT) (MB)    (FT/S)
64 S DAUPHIN ISL 2125   86 86  260/ 14/ 17 1016.1

$$




USA.gov is the U.S. government's official web portal to all federal, state and local government web resources and services.